User: anonymous   Login
Location: Unspecified
(0.0000°N, 0.0000°E)
Time: 18:51:48
(UTC+00:00)
Language:

AUBIESAT-1 - Orbit

View from above orbital plane
View from above orbital plane
View from above satellite
View from above satellite

Ground track
Ground track

The orbit data is extracted from the following two-line orbital elements,

1 37854U 11061E   19340.90186363 +.00001093 +00000-0 +63196-4 0  9991
2 37854 101.7123 327.2378 0159509 277.2000 081.1103 15.06848249442329
Epoch (UTC): 06 December 2019 21:38:41
Eccentricity: 0.0159509
inclination: 101.7123°
perigee height: 435 km
apogee height: 656 km
right ascension of ascending node: 327.2378°
argument of perigee: 277.2000°
revolutions per day: 15.06848249
mean anomaly at epoch: 81.1103°
orbit number at epoch: 44232

The dashed part of the orbit path shows where the satellite is in the earth's shadow,  

DLR